Home   Weather   Wals-Siezenheim   Past weeks

Flag for Austria Past Weather in Wals-Siezenheim, Salzburg, Austria — Yesterday and Last 2 Weeks

Now
70 °F

Partly sunny.


Feels Like: 70 °F
Forecast: 57 / 66 °F
Wind: 8 mph from Southeast

Location: Salzburg-Flughafen

Current Time: Aug 18, 2017 at 9:07:45 am

Latest Report: Aug 18, 2017 at 8:20 am


Visibility: N/A

Pressure: 30.09 "Hg

Humidity: 73%

Dew Point: 61 °F

Location of Wals-SiezenheimLocation

Past Weather in Wals-Siezenheim — Graph

°F

Wals-Siezenheim Temperature Yesterday

Maximum temperature yesterday: 82 °F (at 2:50 pm)
Minimum temperature yesterday: 59 °F (at 1:50 am)
Average temperature yesterday: 71 °F

High & Low Weather Summary for the Past Weeks

 TemperatureHumidityPressure
High91 °F (Aug 3, 2:20 pm)100% (Aug 8, 1:50 am)30.27 "Hg (Aug 8, 1:50 am)
Low52 °F (Aug 14, 5:50 am)35% (Aug 8, 1:50 pm)29.83 "Hg (Aug 8, 12:50 pm)
Average68 °F76%30.08 "Hg
* Reported Aug 3 7:20 am — Aug 18 7:50 am, Wals-Siezenheim. Weather by CustomWeather, © 2017

Note: Actual official high and low records may vary slightly from our data, if they occured in-between our weather recording intervals... More about our weather records

Advertising

Wals-Siezenheim Weather History for the Previous 24 Hours

Scroll right to see more
 ConditionsComfort  
Time TempWeatherWind HumidityBarometerVisibility
7:50 am
Fri, Aug 18
68 °FPartly sunny.10 mph78%30.09 "HgN/A
7:20 am66 °FScattered clouds.9 mph78%30.09 "HgN/A
6:50 am64 °FPartly sunny.8 mph83%30.09 "HgN/A
6:20 am64 °FPartly sunny.6 mph83%30.09 "HgN/A
5:50 am64 °FPassing clouds.8 mph83%30.09 "HgN/A
5:20 am64 °FPassing clouds.8 mph83%30.09 "HgN/A
4:50 am64 °FPassing clouds.6 mph83%30.09 "HgN/A
4:20 am64 °FPassing clouds.5 mph83%30.09 "HgN/A
3:50 am63 °FPassing clouds.5 mph88%30.09 "HgN/A
3:20 am64 °FPassing clouds.5 mph83%30.09 "HgN/A
2:50 am64 °FPassing clouds.5 mph83%30.09 "HgN/A
2:20 am64 °FPassing clouds.5 mph88%30.09 "HgN/A
1:50 am64 °FPassing clouds.6 mph88%30.09 "HgN/A
1:20 am64 °FPassing clouds.5 mph83%30.09 "HgN/A
12:50 am64 °FPassing clouds.3 mph88%30.09 "HgN/A
12:20 am66 °FMild.5 mph83%30.09 "HgN/A
11:50 pm
Thu, Aug 17
66 °FPassing clouds.6 mph83%30.09 "HgN/A
11:20 pm66 °FClear.5 mph83%30.09 "Hg10 mi
10:50 pm70 °FPassing clouds.6 mph78%30.09 "HgN/A
10:20 pm68 °FClear.6 mph83%30.09 "Hg10 mi
9:50 pm70 °FPassing clouds.6 mph83%30.12 "HgN/A
9:20 pm72 °FPassing clouds.3 mph78%30.12 "HgN/A
8:50 pm75 °FPartly cloudy.3 mph69%30.09 "HgN/A
8:20 pm75 °FPassing clouds.1 mph74%30.09 "HgN/A
7:50 pm77 °FPartly sunny.3 mph69%30.09 "HgN/A
7:20 pm77 °FBroken clouds.5 mph65%30.07 "HgN/A
6:50 pm79 °FBroken clouds.6 mph54%30.07 "HgN/A
6:20 pm79 °FPartly sunny.7 mph58%30.07 "HgN/A
5:50 pm81 °FPartly sunny.7 mph51%30.07 "HgN/A
5:20 pm82 °FPartly sunny.7 mph45%30.07 "HgN/A
4:50 pm82 °FPartly sunny.6 mph48%30.09 "HgN/A
4:20 pm82 °FPartly sunny.7 mph51%30.09 "HgN/A
3:50 pm82 °FPartly sunny.7 mph51%30.09 "HgN/A
3:20 pm82 °FPartly sunny.7 mph48%30.09 "HgN/A
2:50 pm82 °FPartly sunny.5 mph45%30.09 "HgN/A
2:20 pm81 °FPartly sunny.2 mph48%30.12 "HgN/A
1:50 pm81 °FPartly sunny.7 mph54%30.12 "HgN/A
1:20 pm81 °FPartly sunny.6 mph48%30.12 "HgN/A
12:50 pm81 °FScattered clouds.6 mph54%30.12 "HgN/A
12:20 pm79 °FScattered clouds.2 mph54%30.12 "HgN/A
11:50 am79 °FScattered clouds.2 mph54%30.12 "HgN/A
11:20 am77 °FPassing clouds.2 mph57%30.15 "HgN/A
10:50 am75 °FPassing clouds.3 mph65%30.15 "HgN/A
10:20 am73 °FPassing clouds.5 mph65%30.15 "HgN/A
9:20 am70 °FSunny.8 mph73%30.15 "Hg10 mi
Weather by CustomWeather, © 2017

See weather overviewHow to use our weather pages